Flag for U.S.A. Weather past 2 weeks in Milwaukee, Wisconsin, U.S.A.

Now
43 °F

Overcast.


Feels Like: 37 °F
Forecast: 28 / 46 °F
Wind: 10 mph from South

Location: Milwaukee / Timmerman

Current Time: Dec 27, 2014 at 7:08:16 AM

Latest Report: Dec 27, 2014 at 5:35 AM


Visibility: 7 mi

Pressure: 29.89 "Hg

Humidity: 93%

Dew point: 41 °F

Location of MilwaukeeLocation

Historic Weather in Milwaukee — Graph

°F

Milwaukee temperature yesterday

Maximum temperature yesterday: 46 °F (at 12:45 PM)
Minimum temperature yesterday: 36 °F (at 7:45 AM)
Average temperature yesterday: 39 °F

Past Weeks' High & Low Weather Summary

 TemperatureHumidityPressure
High48 °F (Dec 14, 11:45 AM)100% (Dec 13, 5:15 AM)30.32 "Hg (Dec 13, 5:15 AM)
Low18 °F (Dec 18, 4:15 AM)57% (Dec 26, 12:45 PM)29.48 "Hg (Dec 24, 1:45 PM)
Average35 °F83%30.00 "Hg
* Reported Dec 12 5:15 AM — Dec 27 5:35 AM, Milwaukee, Weather by CustomWeather, © 2014

Note: Actual official high and low records may vary slightly from our data, if they occured in-between our weather recording intervals... More about our weather records

Advertising

Milwaukee weather history for previous 24 hours

 ConditionsComfort  
Time TempWeatherWind HumidityBarometerVisibility
5:35 AM
Dec 27
43 °FOvercast.10 mph93%29.89 "Hg7 mi
5:15 AM43 °FMostly cloudy.9 mph93%29.90 "Hg7 mi
4:55 AM43 °FOvercast.9 mph93%29.91 "Hg7 mi
4:15 AM43 °FMostly cloudy.5 mph87%29.91 "Hg7 mi
3:55 AM43 °FOvercast.3 mph87%29.93 "Hg7 mi
3:15 AM43 °FOvercast.3 mph87%29.95 "Hg7 mi
2:55 AM43 °FLight rain. Mostly cloudy.6 mph87%29.96 "Hg7 mi
2:35 AM41 °FRain. Overcast.6 mph87%29.97 "Hg7 mi
2:15 AM41 °FRain. Overcast.5 mph87%29.98 "Hg7 mi
1:55 AM41 °FOvercast.5 mph87%29.98 "Hg10 mi
1:15 AM41 °FMostly cloudy.3 mph81%29.97 "Hg10 mi
12:55 AM39 °FOvercast.No wind87%29.98 "Hg10 mi
12:35 AM39 °FOvercast.No wind87%29.98 "Hg10 mi
12:15 AM41 °FOvercast.No wind81%29.99 "Hg10 mi
11:55 PM
Dec 26
37 °FMostly cloudy.No wind87%30.00 "Hg10 mi
11:35 PM41 °FPartly cloudy.No wind81%30.00 "Hg10 mi
11:15 PM41 °FPassing clouds.3 mph81%30.01 "Hg10 mi
10:55 PM41 °FOvercast.6 mph81%30.01 "Hg10 mi
10:15 PM37 °FClear.3 mph87%30.01 "Hg10 mi
9:35 PM37 °FPassing clouds.No wind87%30.01 "Hg10 mi
9:15 PM37 °FOvercast.No wind87%30.02 "Hg10 mi
8:55 PM39 °FMostly cloudy.No wind81%30.02 "Hg10 mi
8:35 PM37 °FMostly cloudy.No wind87%30.02 "Hg10 mi
8:15 PM39 °FMostly cloudy.No wind81%30.02 "Hg10 mi
7:45 PM39 °FOvercast.No wind81%30.01 "Hg10 mi
6:45 PMN/APassing clouds.No windN/AN/A10 mi
4:45 PM43 °FPassing clouds.5 mph71%30.00 "Hg10 mi
3:45 PM45 °FScattered clouds.7 mph71%29.99 "Hg10 mi
2:45 PM46 °FSunny.5 mph62%29.98 "Hg10 mi
1:45 PM46 °FSunny.12 mph57%29.97 "Hg10 mi
12:45 PM46 °FSunny.12 mph57%29.95 "Hg10 mi
11:45 AM45 °FSunny.13 mph66%29.98 "Hg10 mi
10:45 AM41 °FSunny.7 mph76%29.99 "Hg10 mi
9:45 AM41 °FSunny.12 mph76%30.01 "Hg10 mi
8:45 AM37 °FSunny.7 mph87%29.98 "Hg10 mi
7:45 AM36 °FSunny.6 mph87%29.97 "Hg10 mi
Weather by CustomWeather, © 2014

See weather overviewHow to use our weather pages